Location: Mequon Rotary Park
(43.2522°N, 87.9594°W)
Time: 11:00:23
(UTC-05:00)

Daily predictions for brighter satellites

Satellite Brightness Start Highest point End
(mag) Time Altitude Azimuth Time Altitude Azimuth Time Altitude Azimuth
Nadezhda 3 Rocket 4.4 20:37:13 10° N 20:43:22 49° ENE 20:49:30 10° SSE
Sich 1 Rocket 3.8 20:41:44 10° S 20:46:13 58° E 20:50:43 10° NNE
Cosmos 2084 3.2 20:43:06 10° SSW 20:46:52 56° ESE 20:50:38 10° NE
ERS-1 Rocket 3.1 20:45:15 10° SSE 20:50:14 65° ENE 20:55:14 10° N
COSMOS 2487 3.0 20:47:17 10° N 20:50:46 43° ENE 20:54:13 10° SE
Coronas F rocket 3.6 20:51:29 10° SW 20:53:50 28° WNW 20:56:12 10° NNW
Cosmos 1975 Rocket 3.9 20:50:17 10° NNE 20:54:11 32° ENE 20:58:04 10° SE
Cosmos 407 Rocket 3.8 20:49:22 10° NNW 20:54:38 75° WSW 20:59:56 10° SSE
Cosmos 1140 Rocket 4.0 20:49:58 10° N 20:54:54 44° ENE 20:59:49 10° SE
EO 1 Delta rocket 4.4 20:56:26 10° NNE 21:02:14 49° E 21:07:01 10° SSE
Cosmos 1378 Rocket 3.6 20:59:19 10° N 21:03:36 62° E 21:07:53 10° SSE
Cosmos 1908 Rocket 3.5 21:00:48 10° S 21:05:11 72° E 21:09:38 10° NNE
Cosmos 1733 Rocket 4.1 21:01:01 10° SSW 21:05:18 50° WNW 21:09:34 10° N
ISS -3.4 21:02:18 10° SW 21:05:33 89° S 21:08:50 10° ENE
Cosmos 1606 2.7 21:03:00 10° N 21:06:58 87° E 21:10:53 10° S
Cosmos 1452 Rocket 3.5 21:04:33 10° SSW 21:09:49 85° ESE 21:15:08 10° NNE
Cosmos 1862 3.3 21:08:05 10° S 21:12:08 73° E 21:16:14 10° NNE
Cosmos 1238 Rocket 2.6 21:09:28 10° N 21:12:48 63° E 21:16:44 10° SSE
BREEZE-M DEB (TANK) 3.0 21:10:53 10° W 21:12:49 30° NNW 21:14:56 10° NE
Cosmos 2341 Rocket 4.1 21:07:53 10° S 21:14:03 63° E 21:20:14 10° NNE
H-2A R/B 3.9 21:11:39 10° E 21:14:52 16° ENE 21:18:03 10° NNE
Cosmos 1184 Rocket 2.8 21:14:40 10° S 21:17:56 60° E 21:21:16 10° NNE
SPOT 5 3.3 21:14:05 10° SSE 21:19:18 60° ENE 21:24:35 10° N
deb Chang Zheng 4 3.6 21:15:12 10° NNE 21:19:38 68° ESE 21:24:02 10° S
SL-8 Rocket 4.4 21:15:03 10° SSE 21:20:52 42° E 21:26:40 10° NNE
Cosmos 962 Rocket 4.5 21:15:53 10° S 21:22:01 72° E 21:28:15 10° NNE
Abrixas 3.8 21:22:21 10° S 21:24:41 20° SE 21:24:56 20° SE
Meteor 1-27 Rocket 4.0 21:19:38 10° NNW 21:25:09 68° W 21:30:37 10° S
Gbstr 26 Del rocket 4.5 21:21:57 10° NW 21:27:07 38° NNE 21:31:22 10° E
USA 245 4.2 21:25:48 17° ESE 21:28:00 33° ENE 21:31:56 10° N
Cosmos 1242 Rocket 2.6 21:25:00 10° N 21:28:39 61° E 21:31:23 17° SSE
Timation 2 Rocket 3.9 21:23:05 10° NNW 21:29:06 79° ENE 21:34:08 15° SSE
Elektron 3 3.9 21:26:19 10° NW 21:29:12 83° NE 21:31:54 18° SE
Lacrosse 5 3.8 21:31:52 12° E 21:31:52 12° E 21:32:33 10° E
SPOT 1/Viking Rocket 4.1 21:26:12 15° SE 21:30:07 43° ENE 21:35:02 10° N
ARGOS 3.8 21:27:48 16° SE 21:31:40 40° ENE 21:36:38 10° N
H-2A R/B 2.2 21:29:52 10° S 21:34:08 71° WSW 21:38:21 10° NNW
YAOGAN 6 2.8 21:33:24 20° SE 21:35:34 52° ENE 21:39:01 10° N
Cosmos 2154 Rocket 4.3 21:31:17 10° SSW 21:37:27 70° W 21:43:39 10° N
Cosmos 1295 Rocket 4.5 21:31:44 10° S 21:37:59 69° E 21:44:13 10° NNE
Cosmos 1408 3.1 21:34:33 10° SSW 21:38:09 59° W 21:41:46 10° N
Cosmos 2151 Rocket 4.3 21:36:41 19° SSE 21:39:23 36° E 21:43:32 10° NNE
Cosmos 1850 Rocket 4.0 21:35:24 10° NNW 21:40:46 82° ENE 21:44:48 18° SSE
COS B Rocket 4.0 21:40:09 10° N 21:44:02 51° W 21:47:28 10° SSW
USA 229 DEB 3.9 21:38:00 10° NNW 21:45:06 68° NE 21:50:15 20° SE
USA 229 3.9 21:38:06 10° NNW 21:45:11 67° NE 21:50:21 20° SE
Okean 3 4.1 21:41:36 10° NNW 21:45:48 57° W 21:49:56 10° S
Cosmos 1825 3.7 21:52:02 10° SW 21:55:35 36° WNW 21:59:10 10° N
MetOp-A 4.2 21:52:13 15° S 21:56:38 77° WSW 22:02:00 10° NNW
GPS 2-05 Rocket1 4.3 21:54:03 10° WSW 21:57:04 24° S 21:57:12 23° S
Cosmos 1833 Rocket 2.8 21:52:25 10° NNW 21:58:02 66° ENE 22:01:16 26° SE
Cosmos 1741 Rocket 4.2 21:57:09 10° NNW 22:02:21 67° WSW 22:05:52 21° S
Cosmos 2366 rocket 4.0 21:57:17 16° S 22:02:24 64° E 22:08:41 10° NNE
Cosmos 2278 Rocket 3.3 21:59:29 10° SW 22:04:55 47° WNW 22:10:25 10° NNE
Cosmos 1331 Rocket 4.4 22:05:38 28° SSE 22:07:35 39° ESE 22:12:22 10° NE
CZ-4 R/B 3.9 22:04:40 10° NNE 22:09:16 55° E 22:11:23 29° SSE
Meteor 1-25 Rocket 4.4 22:06:56 22° SSE 22:10:36 58° E 22:16:19 10° NNE
Okean 2 Rocket 4.1 22:06:35 10° SSW 22:10:49 45° WNW 22:15:04 10° N
Okean 1 4.0 22:09:58 10° N 22:13:49 39° ENE 22:14:37 35° ESE
Cosmos 1110 Rocket 4.1 22:13:24 26° S 22:16:10 54° ESE 22:21:14 10° NNE
NOSS 8 (H) 4.5 22:19:49 55° SE 22:20:00 56° ESE 22:23:43 10° NE
SL-08 RB Rocket 3.7 22:21:37 34° S 22:23:39 84° WSW 22:28:20 10° NNW
Cosmos 2082 Rocket 2.5 22:18:12 10° NNW 22:23:50 64° WSW 22:26:48 28° S
Landsat 7 3.8 22:23:52 38° SSE 22:25:38 72° ENE 22:30:24 10° N
OAO 3 Rocket 4.2 22:22:03 10° SW 22:25:53 30° S 22:25:53 30° S
Cosmos 1812 2.7 22:22:47 10° N 22:26:39 66° E 22:27:16 55° SE
Meteor 1-18 Rocket 4.4 22:24:33 10° NNW 22:30:29 82° W 22:33:37 30° S
NOSS 3-1 (C) 4.3 22:25:03 10° NNW 22:32:25 59° NE 22:37:00 27° ESE
Cosmos 2218 Rocket 4.3 22:26:39 10° SSW 22:32:55 67° W 22:39:19 10° N
CARTOSAT-1 3.6 22:32:45 48° SE 22:33:40 62° ENE 22:37:57 10° N
AVUM R/B 3.7 22:32:46 10° NW 22:36:14 54° WSW 22:36:29 52° SW
Meteor 2-19 Rocket 4.4 22:33:07 25° S 22:36:52 86° E 22:43:00 10° N
BREEZE-M TANK 3.3 22:29:06 10° W 22:40:19 75° N 22:42:07 32° E
Terra 1.8 22:40:06 48° SE 22:41:20 73° ENE 22:46:06 10° N
ISS -0.9 22:39:36 10° WNW 22:42:19 23° NNW 22:45:02 10° NE
USA 234 3.6 22:36:36 10° ENE 22:42:40 39° SE 22:43:56 36° SSE
Cosmos 1486 Rocket 4.1 22:37:51 10° NNW 22:43:11 66° ENE 22:44:40 45° SE
Cosmos 1536 Rocket 4.2 22:40:40 10° NNW 22:45:00 50° W 22:46:41 33° SSW
CZ-4B R/B 4.2 22:40:32 10° N 22:45:18 50° WNW 22:49:14 14° SW
Cosmos 1727 Rocket 4.2 22:39:19 10° NNW 22:45:26 66° W 22:48:47 28° SSW
DELTA 2 DEB (DPAF) 4.2 22:45:28 48° S 22:46:38 72° WSW 22:51:07 10° NNW
Meteor 1-13 Rocket 4.4 22:41:37 10° N 22:47:34 64° ENE 22:49:26 43° SE
H-2A R/B 2.1 22:51:51 43° S 22:53:40 76° WSW 22:58:59 10° NNW
Spot 2 4.5 22:49:58 10° NNE 22:53:38 44° ENE 22:53:38 44° ENE
Lacrosse 5 rocket 2.0 22:57:31 38° NE 22:57:31 38° NE 22:59:56 10° NE
Spot 4 3.8 22:58:36 60° SSE 22:59:29 82° ENE 23:04:22 10° NNW
IGS 5A 3.4 23:01:46 69° SW 23:02:05 74° WSW 23:06:16 10° NNW
Meteor 1-11 Rocket 3.8 23:01:37 50° SSE 23:02:56 64° E 23:08:38 10° NNE
Cosmos 1633 4.0 23:09:39 30° NE 23:09:39 30° NE 23:11:54 10° NNE
Cosmos 1302 Rocket 3.9 23:09:41 55° SSW 23:10:54 86° ESE 23:16:14 10° NNE
Cosmos 2369 Rocket 2.5 23:11:23 46° ESE 23:11:23 46° ESE 23:16:38 10° NE
Lacrosse 5 1.7 23:10:52 48° SW 23:12:18 81° SE 23:17:25 10° NE
Gbstr 26 Del rocket 3.0 23:09:34 10° WNW 23:14:15 69° WSW 23:14:15 69° WSW
Cosmos 1025 Rocket 3.1 23:11:13 10° N 23:15:28 67° ENE 23:15:28 67° ENE
Meteor 2-21 Rocket 4.4 23:15:05 53° SSE 23:16:25 67° E 23:22:34 10° NNE
Cosmos 1821 Rocket 3.9 23:17:02 52° SSE 23:18:37 76° E 23:24:50 10° N
Cosmos 1605 Rocket 4.4 23:18:36 43° ESE 23:19:32 46° E 23:25:36 10° NNE
Cosmos 1400 Rocket 3.1 23:25:09 67° N 23:25:09 67° N 23:28:47 10° N
Cosmos 1455 Rocket 4.3 23:27:31 30° ENE 23:27:31 30° ENE 23:30:23 10° NNE
Meteor 1-23 Rocket 4.1 23:20:56 10° N 23:26:31 67° ENE 23:27:09 62° ESE
Meteor 2-21 4.4 23:24:49 50° SSW 23:26:36 86° W 23:32:51 10° N
Cosmos 1934 Rocket 3.8 23:26:34 59° SSE 23:27:39 74° E 23:33:43 10° N
Cosmos 1536 3.4 23:28:54 54° NNE 23:28:54 54° NNE 23:32:03 10° N
ASTEX 1 3.8 23:25:11 10° N 23:30:03 57° W 23:31:05 47° SW
Meteor 1-19 Rocket 4.3 23:25:04 10° NNW 23:30:56 78° W 23:32:00 60° SSW
Cosmos 2285 Rocket 3.9 23:29:54 58° SSE 23:31:06 72° ESE 23:37:29 10° NNE
Iridium 4 Rocket 3.7 23:25:11 10° N 23:31:09 88° E 23:32:11 63° S
Cosmos 1809 Rocket 4.5 23:29:36 48° SSW 23:31:26 78° W 23:37:39 10° N
Okean 1 Rocket 4.3 23:33:27 33° WSW 23:34:27 37° WNW 23:38:37 10° N
ALOS 2 3.9 23:35:44 30° ENE 23:35:44 30° ENE 23:39:17 10° N
Cosmos 2123 Rocket 3.9 23:29:35 10° N 23:35:53 77° E 23:36:59 61° SSE
Cosmos 1943 Rocket 3.3 23:40:42 30° E 23:40:42 30° E 23:44:30 10° NE
SL-8 R/B 3.9 23:43:23 10° WNW 23:48:13 68° NNE 23:48:18 68° NNE
Meteor 1-5 Rocket 4.1 23:49:21 66° E 23:49:21 66° E 23:54:30 10° NNE
Cosmos 1503 Rocket 4.1 23:46:18 10° NNW 23:51:29 62° WSW 23:51:35 62° WSW
CZ-4B R/B 3.9 23:57:07 17° NNE 23:57:07 17° NNE 23:58:09 10° NNE
